Flag for Germany Weather past 2 weeks in Wiesloch, Baden-Württemberg, Germany

Now
99 °F

Passing clouds.


Feels Like: 99 °F
Forecast: 66 / 82 °F
Wind: 9 mph from South

Location: Baden Wurttemberg - Neuostheim

Current Time: Jul 5, 2015 at 5:21:46 PM

Latest Report: Jul 5, 2015 at 4:50 PM


Visibility: N/A

Pressure: 29.89 "Hg

Humidity: 29%

Dew point: 61 °F

Location of WieslochLocation

Historic Weather in Wiesloch — Graph

°F

Wiesloch temperature yesterday

Maximum temperature yesterday: 100 °F (at 6:20 PM)
Minimum temperature yesterday: 75 °F (at 6:20 AM)
Average temperature yesterday: 91 °F

Past Weeks' High & Low Weather Summary

 TemperatureHumidityPressure
High100 °F (Jul 4, 6:20 PM)100% (Jun 22, 5:50 AM)30.21 "Hg (Jun 22, 5:50 AM)
Low50 °F (Jun 23, 5:20 AM)24% (Jul 1, 2:50 PM)29.74 "Hg (Jun 22, 9:20 PM)
Average74 °F54%30.09 "Hg
* Reported Jun 20 3:20 PM — Jul 5 3:50 PM, Wiesloch, Weather by CustomWeather, © 2015

Note: Actual official high and low records may vary slightly from our data, if they occured in-between our weather recording intervals... More about our weather records

Advertising

Wiesloch weather history for previous 24 hours

 ConditionsComfort  
Time TempWeatherWind HumidityBarometerVisibility
3:50 PM
Sun, Jul 5
100 °FPassing clouds.9 mph27%29.92 "HgN/A
3:20 PM99 °FPassing clouds.10 mph29%29.92 "HgN/A
2:50 PM99 °FPassing clouds.10 mph29%29.95 "HgN/A
2:20 PM99 °FPassing clouds.8 mph25%29.95 "HgN/A
1:50 PM99 °FPassing clouds.8 mph25%29.95 "HgN/A
1:20 PM97 °FPassing clouds.7 mph34%29.95 "HgN/A
12:50 PM97 °FPassing clouds.8 mph32%29.98 "HgN/A
12:20 PM95 °FSunny.5 mph34%29.98 "Hg10 mi
11:50 AM93 °FSunny.3 mph41%29.98 "Hg10 mi
11:20 AM90 °FSunny.3 mph46%30.01 "Hg10 mi
10:50 AM88 °FSunny.3 mph49%30.01 "Hg10 mi
10:20 AM86 °FPassing clouds.5 mph52%30.01 "HgN/A
9:50 AM84 °FPassing clouds.5 mph58%30.01 "HgN/A
9:20 AM82 °FSunny.3 mph58%30.04 "Hg10 mi
8:50 AM82 °FSunny.6 mph58%30.01 "Hg10 mi
8:20 AM82 °FSunny.2 mph55%30.04 "Hg10 mi
7:50 AM81 °FSunny.2 mph58%30.04 "Hg10 mi
9:20 PM
Sat, Jul 4
91 °FSunny.5 mph36%30.07 "Hg10 mi
8:50 PM93 °FSunny.13 mph32%30.07 "Hg10 mi
8:20 PM97 °FSunny.14 mph27%30.07 "Hg10 mi
7:50 PM99 °FPassing clouds.6 mph24%30.07 "HgN/A
7:20 PM97 °FPassing clouds.8 mph25%30.07 "HgN/A
6:50 PM99 °FPassing clouds.5 mph25%30.07 "HgN/A
6:20 PM100 °FSunny.3 mph24%30.04 "Hg10 mi
5:50 PM99 °FPassing clouds.5 mph25%30.07 "HgN/A
5:20 PM99 °FPassing clouds.6 mph31%30.07 "HgN/A
Weather by CustomWeather, © 2015

See weather overviewHow to use our weather pages